Regional Weather Roundup
Issued by NWS

Home | Current Version | Previous Version | Graphics & Text | Print | Product List | Glossary On
Versions: 1 2 3 4 5 6 7 8 9 10 11 12 13 14 15 16 17 18 19 20 21 22 23 24 25 26 27 28 29 30 31 32 33 34 35 36 37 38 39 40 41 42 43 44 45 46 47 48 49 50
561
ASUS43 KDMX 300708
RWRIA

WEATHER ROUNDUP FOR IOWA
NATIONAL WEATHER SERVICE DES MOINES IA
200 AM CDT MON MAY 30 2016

NOTE: "FAIR" INDICATES FEW OR NO CLOUDS BELOW 12,000 FEET WITH NO
SIGNIFICANT WEATHER AND/OR OBSTRUCTIONS TO VISIBILITY.

* - THESE STATIONS ARE NOT NWS STATIONS...THUS NOT UNDER NWS
QUALITY CONTROL.  THEY ALSO DO NOT REPORT WEATHER SUCH
AS PRECIPITATION OR FOG.

IAZ001>003-012>014-020>022-031>034-043>046-300800-
   NORTHWEST IOWA

CITY           SKY/WX    TMP DP  RH WIND       PRES   REMARKS
CARROLL *      MOCLDY    64  57  77 S3        30.02S
CHEROKEE *     CLOUDY    57  57 100 CALM      30.01S
DENISON *      CLEAR     66  55  68 VRB3      30.00F
LE MARS *      CLEAR     64  55  72 CALM      30.00S
ORANGE CITY *  MOCLDY    64  54  68 E3        30.01R
SHELDON *      CLEAR     59  55  88 E3        30.00S
SIOUX CITY     CLOUDY    66  56  70 E3        29.99F
SPENCER        CLOUDY    56  53  90 E5        30.02F
STORM LAKE *   CLEAR     64  50  59 E5        30.03S
$$

IAZ055>058-069>071-079>083-090>094-300800-
   SOUTHWEST IOWA

CITY           SKY/WX    TMP DP  RH WIND       PRES   REMARKS
ATLANTIC *     PTCLDY    66  63  88 CALM      30.01S
AUDUBON *      CLEAR     63  57  82 CALM      30.03F
CLARINDA *       N/A     66  63  88 MISG      30.03F
COUNCIL BLFS * CLEAR     72  61  68 SW9       30.00F
CRESTON *      CLEAR     70  61  73 CALM      30.04S
HARLAN  *      CLEAR     66  61  82 CALM      30.04F
LAMONI         CLOUDY    67  62  84 SW6       30.03F
RED OAK *      CLEAR     66  64  94 CALM      30.01F
SHENANDOAH *   CLEAR     70  64  83 SW3       30.02F
$$

IAZ047>049-059>061-072>074-084-300800-
   CENTRAL IOWA

CITY           SKY/WX    TMP DP  RH WIND       PRES   REMARKS
AMES           CLOUDY    62  58  86 CALM      30.02S
ANKENY *       MOCLDY    63  59  88 CALM      30.01S
BOONE *        CLEAR     66  57  72 E3        30.02S
CHARITON *     PTCLDY    68  63  83 SW7       30.02F
DES MOINES     CLOUDY    70  59  68 NE5       30.00F
GRINNELL*      CLOUDY    66  57  72 CALM      30.03F
KNOXVILLE *    CLOUDY    70  61  73 S8        30.00F
MARSHALLTOWN   CLOUDY    62  59  90 CALM      30.01F
NEWTON *       CLOUDY    70  61  73 CALM      30.02S
PELLA *        CLOUDY    66  61  82 CALM      30.02F
PERRY *          N/A     66  61  82 NE3       30.02S
$$

IAZ004>006-015-016-023>025-035-036-300800-
   NORTH CENTRAL IOWA

CITY           SKY/WX    TMP DP  RH WIND       PRES   REMARKS
ALGONA *       CLEAR     63  54  72 CALM      30.03S
CLARION *      CLEAR     59  54  82 E3        30.02S
ESTHERVILLE    CLEAR     56  53  90 CALM      30.02S
FORT DODGE *   CLOUDY    57  52  82 CALM      30.00F
MASON CITY     CLEAR     55  51  86 W5        30.04S
FOREST CITY *  CLEAR     52  52 100 CALM      30.03S
WEBSTER CITY * CLEAR     59  57  94 E5        30.00F
IOWA FALLS *     N/A     63  59  88 CALM      30.04S
$$

IAZ007>011-017>019-026>030-037>042-050>054-066-300800-
   NORTHEAST IOWA

CITY           SKY/WX    TMP DP  RH WIND       PRES   REMARKS
CEDAR RAPIDS   CLOUDY    63  59  87 CALM      30.01F
CHARLES CITY * CLEAR     61  55  82 NW6       30.03S
CLINTON *      PTCLDY    64  59  83 S3        30.01F
DECORAH *      CLEAR     61  59  94 CALM      30.01R
DUBUQUE        PTCLDY    61  57  87 CALM      30.01F
MONTICELLO *   CLEAR     61  59  94 CALM      30.01S
OELWEIN *      CLEAR     64  57  77 W6        30.02F
WATERLOO       CLEAR     60  58  92 CALM      30.00F
$$

IAZ064-065-067-068-078-300800-
   EAST CENTRAL IOWA

CITY           SKY/WX    TMP DP  RH WIND       PRES   REMARKS
DAVENPORT      CLOUDY    68  57  68 SW5       30.01F
IOWA CITY      MOCLDY    67  58  72 CALM      30.02F
MT. PLEASANT * CLOUDY    66  63  88 CALM      30.03S
MUSCATINE *    CLEAR     64  59  82 CALM      30.01F
QUAD CITIES    CLOUDY    65  57  75 CALM      30.00F
$$

IAZ062-063-075>077-085>089-095>099-300800-
   SOUTHEAST IOWA

CITY           SKY/WX    TMP DP  RH WIND       PRES   REMARKS
BURLINGTON     CLOUDY    67  61  81 SW3       30.02F
FAIRFIELD *      N/A    N/A N/A N/A MISG        N/A
FORT MADISON * PTCLDY    68  64  88 SW3       30.04R
KEOKUK *       CLEAR     66  63  88 SW6       30.03S
OSKALOOSA *      N/A     66  59  77 S6        30.02F
OTTUMWA        MOCLDY    68  60  75 CALM      30.01F
WASHINGTON *   CLEAR     64 N/A N/A S5        30.03S
$$

ABBREVIATIONS USED IN REMARKS
   TC - TEMPERATURES IN CELSIUS
  WCI - WIND CHILL INDEX
   HX - HEAT INDEX
  VSB - VISIBILITY
$$





USA.gov is the U.S. government's official web portal to all federal, state and local government web resources and services.